This demonstration page uses our WeatherBlox Daily Observations layout. Learn more.

Left ArrowRight Arrow

38.06084, -97.92977

Hourly Observations for December 7, 2022

Temp ( °F °C ) Dew Point ( °F °C ) Humidity (%) Winds ( mph kmh ) Pressure ( in mb ) Visibility ( mi km ) Precip ( " mm )
12:52 am 00:52 Clear 27 -2.8 23 -5 85 85 Calm 30.11 1020 10 16 0.00 0.00
1:52 am 01:52 Clear 23 -5 20 -6.7 88 88 Calm 30.12 1020 10 16 0.00 0.00
2:52 am 02:52 Clear 25 -3.9 22 -5.6 88 88 Calm 30.13 1020 10 16 0.00 0.00
3:52 am 03:52 Clear 25 -3.9 22 -5.6 88 88 NW 3 6 30.14 1021 10 16 0.00 0.00
4:52 am 04:52 Clear 25 -3.9 22 -5.6 88 88 Calm 30.14 1021 9 14 0.00 0.00
5:52 am 05:52 Clear 24 -4.4 22 -5.6 91 91 Calm 30.16 1021 8 13 0.00 0.00
6:52 am 06:52 Clear 25 -3.9 22 -5.6 88 88 Calm 30.20 1023 7 11 0.00 0.00
7:52 am 07:52 Sunny with Mist and Fog 24 -4.4 22 -5.6 91 91 Calm 30.23 1024 6 10 0.00 0.00
8:52 am 08:52 Sunny with Mist and Fog 29 -1.7 27 -2.8 92 92 Calm 30.24 1024 5 8 0.00 0.00
9:52 am 09:52 Sunny 33 0.6 28 -2.2 81 81 Calm 30.27 1025 7 11 0.00 0.00
10:52 am 10:52 Sunny 37 2.8 29 -1.7 72 72 Calm 30.27 1025 8 13 0.00 0.00
11:52 am 11:52 Sunny 42 5.6 29 -1.7 59 59 SSE 3 6 30.26 1025 10 16 0.00 0.00
12:52 pm 12:52 Sunny 44 6.7 30 -1.1 57 57 Calm 30.24 1024 8 13 0.00 0.00
1:52 pm 13:52 Sunny 47 8.3 30 -1.1 51 51 Calm 30.22 1024 9 14 0.00 0.00
2:52 pm 14:52 Sunny 47 8.3 31 -0.6 53 53 SSE 8 13 30.23 1024 10 16 0.00 0.00
3:52 pm 15:52 Sunny 46 7.8 31 -0.6 55 55 ESE 5 7 30.23 1024 10 16 0.00 0.00
4:52 pm 16:52 Sunny 43 6.1 32 0 65 65 ESE 5 7 30.23 1024 8 13 0.00 0.00
5:52 pm 17:52 Clear 39 3.9 32 0 76 76 E 3 6 30.24 1024 9 14 0.00 0.00
6:52 pm 18:52 Clear 37 2.8 31 -0.6 78 78 NE 3 6 30.25 1024 7 11 0.00 0.00
7:52 pm 19:52 Clear 40 4.4 34 1.1 79 79 E 7 11 30.27 1025 8 13 0.00 0.00
8:52 pm 20:52 Clear 40 4.4 35 1.7 83 83 E 5 7 30.25 1024 8 13 0.00 0.00
9:21 pm 21:21 Partly Cloudy 40 4.4 36 2.2 86 86 E 3 6 30.28 1025 7 11 0.00 0.00
9:30 pm 21:30 Mostly Cloudy with Mist and Fog 40 4.4 37 2.8 89 89 E 3 6 30.28 1026 6 10 0.00 0.00
9:52 pm 21:52 Cloudy with Mist and Fog 40 4.4 36 2.2 86 86 Calm 30.24 1024 6 10 0.00 0.00
10:52 pm 22:52 Cloudy 41 5 38 3.3 89 89 E 3 6 30.24 1024 7 11 0.00 0.00
11:52 pm 23:52 Cloudy 41 5 38 3.3 89 89 Calm 30.22 1023 7 11 0.00 0.00

Powered by AerisWeather